IUS DEB, 43360

Orbit data source: Space-Track

IUS DEB, 43360 is space debris originally from a launch on Fri, 23 Jul 1999 UTC launched from the Air Force Eastern Test Range (AFETR). Debris objects in space refer to the collection of defunct objects orbiting the Earth. Examples of debris include non-operational satellites, rocket bodies, and fragments generated from explosions, collisions, or faulty payload assembly.

Loading next visibility...
Identifier
43360, 1999-040H
Orbit
Active
Last TLE update
1 week ago
Origin
Manufacturer
Boeing/Kent
Mission
Spacecraft
Bus & Motor
Unknown
Mass
Unknown
Launch date (UTC)
1999-07-23 (26 years ago)
Launch vehicle
Unknown
Launch site
Air Force Eastern Test Range (AFETR)
Object type
Payload
Rocket body
Debris
Shape & HBR
Unknown
Radar Cross Section
Small (<0.1 m²)

Expand to show TLE details & history

TLE from 1 week ago
0 IUS DEB
1 43360U 99040H   25176.21858714  .00000012  00000-0  00000-0 0  9998
2 43360  27.8241 148.3183 3479879 140.8516 250.3799  7.07715091332350
Epoch: 2025-06-25T05:14Z
TLE epoch observation values (Epoch: 2025-06-25T05:14:45.928Z)
Latitude
Longitude
156.02363°
Altitude
7,412.259 km
Speed
4.799 km/s
True Right ascension
09h 53m 16s
True Declination
0° 00' 00"
Sunlit
Object was in daylight at epoch
Visualization orbit readout
Latitude
25.97586°
Longitude
-100.29399°
Altitude
1,727.361 km
Speed
7.976 km/s
Apparent Right ascension
17h 10m 21s
Apparent Declination
-2° 32' 37"
Sunlit
Object is in daylight
Visualization observer readout
Local Sidereal Time
05:43:42
Azimuth
13.566° NNE
Elevation
-51.87°
Doppler factor
1
Orbital elements
Apogee altitude
9,073.274 km
Perigee altitude
1,095.6 km
Semi-major axis
11,462.574 km
Eccentricity
0.34799
Inclination
27.8241°
RAAN
148.3183°
Arg. of periapsis
140.8516°
True anomaly
Unknown
Mean anomaly
250.3799°
Eccentric anomaly
Unknown
Mean motion
1.76856 °/min
Orbital period
203.56 mins
BSTAR
0
Loading maneuver chart data...
Loading SW <> Apogee altitude chart data...
Loading historical data...
Loading historical data...
Loading historical data...
Loading historical data...
Loading historical data...
Loading historical data...
Loading historical data...

IUS DEB Visibility forecast

Observer location: undefined°, undefined°

Span
Click to sort rows by Start time (UTC) header in descending order
Start Az.
Max El. time (UTC)
Max El. Az.
Max El.
End time (UTC)
End Az.
72 mins2025-07-01 19:46:00.246Z184.768° SSW2025-07-01 20:31:00.246Z143.663° SSE22.463°2025-07-01 20:58:00.246Z102.737° ESE
63 mins2025-07-01 23:40:00.246Z227.588° WSW2025-07-02 00:26:00.246Z168.87° S37.072°2025-07-02 00:43:00.246Z97.873° ESE
28 mins2025-07-02 03:49:00.246Z259.584° W2025-07-02 04:09:00.246Z195.654° SSW36.624°2025-07-02 04:17:00.246Z123.927° SE
|